[Iaude] MPEC M05: 2024 LQ5 [a=0.75,e=0.52,i=10.8,H=24.8]

mpec at cfa.harvard.edu mpec at cfa.harvard.edu
Sun Jun 16 07:57:12 EDT 2024


M.P.E.C. 2024-M05                                 Issued 2024 June 16, 11:55 UT

     The Minor Planet Electronic Circulars contain information on unusual
         minor planets, routine data on comets and natural satellites,
         and occasional editorial announcements.  They are published
    on behalf of Division F of the International Astronomical Union by the
          Minor Planet Center, Smithsonian Astrophysical Observatory,
                          Cambridge, MA 02138, U.S.A.
			  
             Prepared using the Tamkin Foundation Computer Network

                              MPC at CFA.HARVARD.EDU
            URL https://www.minorplanetcenter.net/    ISSN 1523-6714

                                    2024 LQ5                                    


Observations:
     K24L05Q* C2024 06 15.32893415 02 15.686-06 53 39.12         17.68oVEM005T05
     K24L05Q  C2024 06 15.33269215 02 14.849-06 52 49.08         17.46oVEM005T05
     K24L05Q  C2024 06 15.33926815 02 13.368-06 51 21.46         17.61oVEM005T05
     K24L05Q  C2024 06 15.37174315 02 06.408-06 44 14.57         17.56oVEM005T05
     K24L05Q KC2024 06 15.77555 15 02 12.59 -05 24 14.8          17.9 GVEM005M21
     K24L05Q KC2024 06 15.78375 15 02 11.22 -05 22 57.6          17.8 GVEM005M21
     K24L05Q KC2024 06 15.79197 15 02 09.79 -05 21 40.4          17.8 GVEM005M21
     K24L05Q KC2024 06 15.86996615 01 54.26 -05 16 53.5          17.9 GXEM005L18
     K24L05Q KC2024 06 15.87365415 01 53.76 -05 16 18.9          18.1 GXEM005L18
     K24L05Q KC2024 06 15.87724115 01 53.25 -05 15 45.6          17.8 GXEM005L18
     K24L05Q EC2024 06 15.90812715 01 52.89 -05 11 00.1          18.5 GXEM005595
     K24L05Q KC2024 06 15.90890815 01 52.66 -05 10 49.7          18.0 GVEM005L01
     K24L05Q KB2024 06 15.90894015 01 57.10 -05 10 43.8          18.2 GXEM005958
     K24L05Q pC2024 06 15.91088915 01 52.41 -05 10 31.7          17.7 GVEM005L01
     K24L05Q KC2024 06 15.91286715 01 52.16 -05 10 14.7          17.9 GVEM005L01
     K24L05Q KC2024 06 15.91482015 01 52.08 -05 09 59.9          17.7 GXEM005595
     K24L05Q KC2024 06 15.91488815 01 51.87 -05 09 56.6          17.9 GVEM005L01
     K24L05Q KC2024 06 15.91720115 01 51.58 -05 09 36.2          17.7 GVEM005L01
     K24L05Q KC2024 06 15.92388015 01 50.96 -05 08 39.5          17.7 GXEM005595
     K24L05Q KC2024 06 15.92603915 01 50.72 -05 08 20.5          17.7 GXEM005595
     K24L05Q KC2024 06 15.92819815 01 50.46 -05 08 01.6          18.2 GXEM005595
     K24L05Q KB2024 06 15.93703115 01 53.37 -05 06 36.6          18.3 GXEM005958
     K24L05Q KB2024 06 15.94109815 01 52.82 -05 06 01.4          18.2 GXEM005958
     K24L05Q KB2024 06 15.94505815 01 52.28 -05 05 27.5          18.3 GXEM005958
     K24L05Q KC2024 06 16.13833815 01 53.79 -04 38 58.4          18.5 GVEM005H21
     K24L05Q KC2024 06 16.14031115 01 53.53 -04 38 43.4          18.5 GVEM005H21
     K24L05Q KC2024 06 16.14228615 01 53.27 -04 38 28.4          18.7 GVEM005H21
     K24L05Q KC2024 06 16.14426215 01 53.00 -04 38 13.3          18.7 GVEM005H21
     K24L05Q KC2024 06 16.15332815 01 47.52 -04 37 11.4          18.6 GVEM005932
     K24L05Q KC2024 06 16.15435 15 01 58.69 -04 36 20.9          18.6 GVEM005V21
     K24L05Q mC2024 06 16.15805215 01 58.800-04 35 55.32         18.54GVEM005I52
     K24L05Q mC2024 06 16.15864015 01 58.692-04 35 51.04         18.52GVEM005I52
     K24L05Q mC2024 06 16.16101615 01 58.393-04 35 33.40         18.52GVEM005I52
     K24L05Q KC2024 06 16.16212215 01 46.46 -04 36 04.7          18.3 GVEM005932
     K24L05Q mC2024 06 16.16306515 01 58.120-04 35 17.84         18.34GVEM005I52
     K24L05Q KC2024 06 16.16860 15 01 56.69 -04 34 33.9          18.4 GVEM005V21
     K24L05Q KC2024 06 16.17366715 01 55.00 -04 34 11.8          18.6 GXEM005858
     K24L05Q KC2024 06 16.17454815 01 45.05 -04 34 30.5          18.3 GVEM005932
     K24L05Q KC2024 06 16.18285 15 01 54.64 -04 32 47.2          18.2 GVEM005V21
     K24L05Q KC2024 06 16.18674015 01 53.17 -04 32 34.1          18.2 GXEM005858
     K24L05Q KC2024 06 16.19415615 01 52.15 -04 31 38.6          19.1 GXEM005858
     K24L05Q KC2024 06 16.23463 15 01 47.42 -04 26 27.7          17.8 GVEM005V21
     K24L05Q KC2024 06 16.24889 15 01 45.56 -04 24 44.5          18.4 GVEM005V21
     K24L05Q KC2024 06 16.26311 15 01 43.75 -04 23 02.5          18.6 GVEM005V21

Observer details:
595 Farra d'Isonzo.  Observer E. Pettarin.  0.61-m f/4.5 reflector + CCD.
858 Tebbutt Observatory, Edgewood.  Observer F. B. Zoltowski.  0.16-m f/7
    Refractor + CCD.
932 John J. McCarthy Obs., New Milford.  Observer M. Robson.  0.43 -m f/6.8
    reflector+CCD.
958 Observatoire de Dax.  Observers P. Dupouy, J. Laborde.  Measurer P.
    Dupouy.  0.30-m f/5 Schmidt-Cassegrain + CMO.
H21 Astronomical Research Observatory, Westfield.  Observer R. Holmes.
    Measurers T. Linder, R. Holmes, L. Horn.  0.81-m f/4.0 astrograph + CCD.
I52 Steward Observatory, Mt. Lemmon Station.  Observer G. J. Leonard.
    Measurers T. Beuden, V. F. Carvajal, D. Fay, J. B. Fazekas, D. C. Fuls, A.
    R. Gibbs, A. D. Grauer, H. Groeller, J. K. Hogan, R. A. Kowalski, S. M.
    Larson, G. J. Leonard, D. Rankin, R. L. Seaman, F. C. Shelly, K. W.
    Wierzchos.  1.0-m prime focus + CCD.
L01 Visnjan Observatory, Tican.  Observer K. Korlevic.  1.0-m f/2.9 reflector
    + CCD.
L18 QOS Observatory, Zalistsi.  Observer B. O. Basiev.  Measurer A. M.
    Kozhukhov.  0.50-m f/3.8 reflector + CCD.
M21 Schiaparelli Southern Observatory, Hakos.  Observers A. Aletti, F.
    Bellini, L. Buzzi, G. Galli.  Measurer G. Galli.  0.36-m f/8.4 reflector +
    CCD.
T05 ATLAS-HKO, Haleakala.  Observers L. Denneau, R. Siverd, J. Tonry, H.
    Weiland.  Measurers L. Denneau, N. Erasmus, A. Fitzsimmons, J. Robinson,
    R. Siverd, J. Tonry, H. Weiland.  0.5-m Reflector + CCD.
V21 Cewanee Observatory at DSNM.  Observer D. T. Durig.  0.40 m f/8 Ritchey-
    Chretien + 4656x3520 CCD.

Orbital elements:
2024 LQ5                                                 Earth MOID = 0.0030 AU
Epoch 2024 Mar. 31.0 TT = JDT 2460400.5                 Veres                   
M 359.40445              (2000.0)            P               Q                  
n   1.50859365     Peri.  206.97863     -0.33078450     -0.92508552             
a   0.7529299      Node   262.82586     +0.89621812     -0.24602525             
e   0.5174169      Incl.   10.83698     +0.29559212     -0.28928939             
P   0.65           H   24.87          G   0.15           U   6                  
Residuals in seconds of arc
240615 T05  0.0   0.1+    240615 595  0.3+  0.3-    240616 I52  0.1-  0.1+
240615 T05  0.0   0.1-    240615 L01  0.7-  0.2-    240616 I52  0.4-  0.0
240615 T05  0.4-  0.0     240615 L01  0.7-  0.4-    240616 I52  0.1+  0.2-
240615 T05  0.2+  0.0     240615 595  0.1+  0.1-    240616 932  0.3-  0.0
240615 M21  0.1+  0.1-    240615 595  0.3+  0.1-    240616 I52  0.3+  0.0
240615 M21  0.3+  0.1-    240615 595  0.3+  0.2-    240616 V21  0.0   0.1+
240615 M21  0.1-  0.1+    240615 958  0.5+  0.2+    240616 858  0.3+  0.4-
240615 L18  1.2+  0.4-    240615 958  0.2+  0.0     240616 932  0.1-  0.1+
240615 L18  0.5+  0.6+    240615 958  0.2-  0.6-    240616 V21  0.2-  0.6+
240615 L18  0.6-  1.3+    240616 H21  0.0   0.2+    240616 858  0.1-  0.2-
240615 595  0.1-  1.0-    240616 H21  0.0   0.1+    240616 858  0.1-  0.4+
240615 L01  0.1-  0.2-    240616 H21  0.1+  0.0     240616 V21  0.2-  0.0
240615 958  0.3-  0.1+    240616 H21  0.1-  0.0     240616 V21  0.2+  0.1+
240615 L01  0.1-  0.2+    240616 932  0.0   0.3+    240616 V21  0.2+  0.1+
240615 L01  0.1-  0.4-    240616 V21  0.4-  0.1+

Ephemeris:
2024 LQ5                 a,e,i = 0.75, 0.52, 11                  q = 0.3634
Date    TT    R. A. (2000) Decl.     Delta      r    Elong.  Phase     V
2024 05 17    03 07 45.4 -00 23 05   0.2110  0.8175    20.9   153.9    30.3
...
2024 06 01    03 01 34.2 -03 23 39   0.08995 0.9412    34.4   142.5    26.7
...
2024 06 09    02 59 24.0 -07 44 13   0.02934 0.9943    44.1   134.7    23.4
...
2024 06 15    15 02 30.8 -08 13 48   0.01639 1.0285   140.7    38.7    17.6
2024 06 16    15 01 56.9 -04 53 12   0.02385 1.0337   138.1    41.1    18.4
2024 06 17    15 01 43.3 -03 08 54   0.03135 1.0388   136.2    42.6    19.1
...
2024 06 23    15 02 15.2 -00 02 15   0.07663 1.0666   129.4    47.4    21.2
...
2024 07 01    15 04 50.1 +00 33 06   0.1373  1.0966   122.5    51.4    22.7
...
2024 07 16    15 13 46.8 -00 04 32   0.2509  1.1320   111.3    56.8    24.2

M. P. C. Staff               (C) Copyright 2024 MPC           M.P.E.C. 2024-M05





More information about the Iaude mailing list